EW4077 Weather Reports


Display with metric or nautical units.
time (UTC)temp
F
wind
direction
speed
MPH
gust
MPH
rain 1hr
in
rain 24hr
in
rain mn
in
humidity
%
barometer
mb
20260901094547 67 263 4.0 7.0 0.00 0.00 0.00 84 1014.0
20260901093114 67 263 3.0 6.0 0.00 0.00 0.00 84 1013.9
20260901091559 67 261 3.0 7.0 0.00 0.00 0.00 85 1013.9
20260901090044 67 265 4.0 7.0 0.00 0.00 0.00 85 1013.8
20260901084541 67 260 3.0 6.0 0.00 0.00 0.00 85 1013.9
20260901083045 67 256 3.0 5.0 0.00 0.00 0.00 85 1014.1
20260901081541 67 258 1.0 3.0 0.00 0.00 0.00 85 1014.2
20260901080044 67 270 2.0 3.0 0.00 0.00 0.00 85 1014.1
20260901074536 67 240 0.0 3.0 0.00 0.00 0.00 85 1014.2
20260901073035 67 265 2.0 6.0 0.00 0.00 0.00 86 1014.2
20260901071536 68 266 1.0 4.0 0.00 0.00 0.00 85 1014.0
20260901070035 68 263 2.0 4.0 0.00 0.00 0.00 85 1014.1
20260901064536 68 263 2.0 6.0 0.00 0.00 0.00 86 1014.0
20260901063029 68 249 4.0 7.0 0.00 0.00 0.00 86 1013.9
20260901061528 68 244 3.0 5.0 0.00 0.00 0.00 86 1013.6
20260901060027 68 248 1.0 4.0 0.00 0.00 0.00 86 1013.6
20260901054525 68 235 2.0 6.0 0.00 0.00 0.00 86 1013.6
20260901053025 68 250 4.0 8.0 0.00 0.00 0.00 86 1013.6
20260901051523 68 277 5.0 7.0 0.00 0.00 0.00 86 1013.5
20260901050023 68 243 3.0 6.0 0.00 0.00 0.00 85 1013.4
20260901044521 68 223 4.0 6.0 0.00 0.00 0.00 85 1013.3
20260901043021 68 261 5.0 10.0 0.00 0.00 0.00 85 1013.3
20260901041520 68 242 3.0 7.0 0.00 0.00 0.00 85 1013.2
20260901040021 68 248 1.0 6.0 0.00 0.00 0.00 85 1013.0
20260901034519 68 247 4.0 8.0 0.00 0.00 0.00 85 1012.6
20260901033033 68 249 4.0 9.0 0.00 0.00 0.00 85 1012.4
20260901031516 69 244 6.0 10.0 0.00 0.00 0.00 85 1012.3
20260901030016 69 257 6.0 13.0 0.00 0.00 0.00 85 1012.1
20260901024514 69 252 8.0 13.0 0.00 0.00 0.00 84 1011.9
20260901023013 69 252 7.0 12.0 0.00 0.00 0.00 84 1011.7
20260901021517 69 281 7.0 14.0 0.00 0.00 0.00 83 1011.7
20260901020012 70 257 11.0 16.0 0.00 0.00 0.00 83 1011.8
20260901014510 70 219 11.0 16.0 0.00 0.00 0.00 82 1011.7
20260901013009 70 234 9.0 17.0 0.00 0.00 0.00 81 1011.7
20260901011509 71 238 9.0 18.0 0.00 0.00 0.00 82 1011.6
20260901010007 71 263 12.0 19.0 0.00 0.00 0.00 81 1011.6
20260901004505 71 244 13.0 19.0 0.00 0.00 0.00 81 1011.9
20260901003004 71 245 13.0 21.0 0.00 0.00 0.00 81 1011.9
20260901001508 72 263 13.0 22.0 0.00 0.00 0.00 81 1011.8
20260901000001 72 259 13.0 19.0 0.00 0.00 0.00 81 1011.9
20260831234602 72 257 15.0 24.0 0.00 0.00 0.00 82 1011.9
20260831233054 72 253 11.0 19.0 0.00 0.00 0.00 81 1012.0
20260831231553 73 216 11.0 19.0 0.00 0.00 0.00 80 1011.9
20260831230049 73 265 11.0 16.0 0.00 0.00 0.00 80 1011.8
20260831224547 73 234 12.0 18.0 0.00 0.00 0.00 79 1011.9
20260831223045 73 252 12.0 20.0 0.00 0.00 0.00 80 1012.1
20260831221546 73 225 13.0 20.0 0.00 0.00 0.00 80 1012.3
20260831220052 73 211 12.0 20.0 0.00 0.00 0.00 79 1012.4
20260831214543 74 227 11.0 17.0 0.00 0.00 0.00 77 1012.5
20260831213041 74 208 7.0 13.0 0.00 0.00 0.00 77 1012.8
20260831211533 74 243 6.0 14.0 0.00 0.00 0.00 78 1013.2
20260831210036 74 221 7.0 12.0 0.00 0.00 0.00 78 1013.2
20260831204532 74 248 5.0 14.0 0.00 0.00 0.00 78 1013.3
20260831203047 74 242 5.0 12.0 0.00 0.00 0.00 78 1013.4
20260831201530 74 219 6.0 12.0 0.00 0.00 0.00 77 1013.5
20260831200036 74 211 6.0 11.0 0.00 0.00 0.00 77 1013.5
20260831194528 74 213 6.0 11.0 0.00 0.00 0.00 77 1013.6
20260831193028 75 249 4.0 7.0 0.00 0.00 0.00 76 1013.7
20260831191527 75 268 3.0 7.0 0.00 0.00 0.00 76 1013.9
20260831190030 75 209 2.0 5.0 0.00 0.00 0.00 77 1013.8
20260831184530 74 246 3.0 6.0 0.00 0.00 0.00 77 1013.9
20260831183027 75 143 3.0 5.0 0.00 0.00 0.00 77 1014.0
20260831181527 75 206 3.0 7.0 0.00 0.00 0.00 77 1014.0
20260831180026 76 163 2.0 6.0 0.00 0.00 0.00 75 1013.9
20260831174522 75 191 3.0 5.0 0.00 0.00 0.00 76 1013.8
20260831173019 75 184 2.0 5.0 0.00 0.00 0.00 75 1013.7
20260831171517 75 201 2.0 5.0 0.00 0.00 0.00 77 1013.7
20260831170022 74 248 2.0 4.0 0.00 0.00 0.00 77 1013.6
20260831164511 74 153 2.0 0.0 0.00 0.00 0.00 79 1013.5
20260831163008 72 241 1.0 4.0 0.00 0.00 0.00 82 1013.4
20260831161510 72 240 3.0 6.0 0.00 0.00 0.00 82 1013.3
20260831160004 71 249 5.0 6.0 0.00 0.00 0.00 84 1013.3
20260831154503 71 242 4.0 5.0 0.00 0.00 0.00 84 1013.3
20260831153001 71 274 2.0 6.0 0.00 0.00 0.00 85 1013.2
20260831151600 71 254 2.0 4.0 0.00 0.00 0.00 85 1013.2
20260831150058 71 243 1.0 4.0 0.00 0.00 0.00 85 1013.0
20260831144555 71 211 1.0 4.0 0.00 0.00 0.00 86 1012.9
20260831143056 70 246 1.0 2.0 0.00 0.00 0.00 86 1012.9
20260831141552 69 247 1.0 3.0 0.00 0.00 0.00 86 1012.5
20260831140050 69 272 1.0 3.0 0.00 0.00 0.00 86 1012.3
20260831134548 68 260 1.0 4.0 0.00 0.00 0.00 87 1012.2
20260831133049 68 233 1.0 4.0 0.00 0.00 0.00 87 1012.1
20260831131550 69 236 1.0 3.0 0.00 0.00 0.00 87 1012.0
20260831130055 69 259 3.0 4.0 0.00 0.00 0.00 86 1011.9
20260831124551 69 268 3.0 5.0 0.00 0.00 0.00 86 1011.8
20260831123048 69 250 3.0 6.0 0.00 0.00 0.00 86 1011.7
20260831121543 69 248 3.0 5.0 0.00 0.00 0.00 86 1011.7
20260831120119 69 250 2.0 5.0 0.00 0.00 0.00 86 1011.7
20260831114540 69 245 4.0 5.0 0.00 0.00 0.00 86 1011.8
20260831113039 69 229 2.0 6.0 0.00 0.00 0.00 86 1011.8
20260831111548 69 246 2.0 6.0 0.00 0.00 0.00 86 1011.8
20260831110038 69 252 3.0 7.0 0.00 0.00 0.00 86 1011.8
20260831104540 69 254 4.0 6.0 0.00 0.00 0.00 86 1011.8
20260831103044 69 235 4.0 8.0 0.00 0.00 0.00 86 1011.8
20260831101536 70 261 4.0 9.0 0.00 0.00 0.00 86 1011.8
20260831100037 70 241 6.0 8.0 0.00 0.00 0.00 86 1011.8